| time (UTC) | temp C | wind direction | speed KPH | gust KPH | rain 1hr cm | rain 24hr cm | rain mn cm | humidity % | barometer mb |
| 20260505163030 | 17 | 16 | 6.4 | 14.5 | 0.00 | 0.00 | 0.00 | 67 | 1016.8 |
| 20260505161531 | 16 | 34 | 8.0 | 17.7 | 0.00 | 0.00 | 0.00 | 69 | 1016.9 |
| 20260505153029 | 15 | 31 | 6.4 | 12.9 | 0.00 | 0.00 | 0.00 | 78 | 1016.9 |
| 20260505151603 | 13 | 27 | 4.8 | 9.7 | 0.00 | 0.00 | 0.00 | 87 | 1016.8 |
| 20260505130104 | 8 | 168 | 3.2 | 6.4 | 0.00 | 0.00 | 0.00 | 95 | 1015.7 |
| 20260505123031 | 8 | 168 | 3.2 | 8.0 | 0.00 | 0.00 | 0.00 | 95 | 1015.7 |
| 20260505121529 | 8 | 185 | 1.6 | 6.4 | 0.00 | 0.00 | 0.00 | 95 | 1015.7 |
| 20260505114528 | 8 | 176 | 3.2 | 6.4 | 0.00 | 0.00 | 0.00 | 95 | 1015.6 |
| 20260505113033 | 8 | 200 | 1.6 | 6.4 | 0.00 | 0.00 | 0.00 | 95 | 1015.5 |
| 20260505111645 | 8 | 175 | 3.2 | 6.4 | 0.00 | 0.00 | 0.00 | 94 | 1015.5 |
| 20260505101532 | 9 | 167 | 1.6 | 6.4 | 0.00 | 0.00 | 0.00 | 93 | 1015.1 |
| 20260505100037 | 9 | 139 | 0.0 | 4.8 | 0.00 | 0.00 | 0.00 | 92 | 1015.1 |
| 20260505094531 | 9 | 145 | 1.6 | 4.8 | 0.00 | 0.00 | 0.00 | 91 | 1015.0 |
| 20260505093033 | 9 | 137 | 1.6 | 4.8 | 0.00 | 0.00 | 0.00 | 90 | 1015.0 |
| 20260505091531 | 9 | 199 | 1.6 | 4.8 | 0.00 | 0.00 | 0.00 | 89 | 1014.9 |
| 20260505090030 | 10 | 175 | 1.6 | 6.4 | 0.00 | 0.00 | 0.00 | 88 | 1014.8 |
| 20260505084603 | 10 | 140 | 0.0 | 4.8 | 0.00 | 0.00 | 0.00 | 86 | 1014.8 |
| 20260505083030 | 11 | 153 | 1.6 | 6.4 | 0.00 | 0.00 | 0.00 | 83 | 1014.8 |
| 20260505081536 | 11 | 223 | 3.2 | 8.0 | 0.00 | 0.00 | 0.00 | 83 | 1014.8 |
| 20260505080104 | 11 | 170 | 4.8 | 9.7 | 0.00 | 0.00 | 0.00 | 83 | 1014.8 |
| 20260505074529 | 12 | 182 | 4.8 | 8.0 | 0.00 | 0.00 | 0.00 | 82 | 1014.7 |
| 20260505073031 | 12 | 172 | 3.2 | 8.0 | 0.00 | 0.00 | 0.00 | 81 | 1014.7 |
| 20260505063107 | 13 | 165 | 4.8 | 9.7 | 0.00 | 0.00 | 0.00 | 74 | 1014.7 |
| 20260505061533 | 15 | 147 | 3.2 | 6.4 | 0.00 | 0.00 | 0.00 | 69 | 1014.7 |
| 20260505060030 | 16 | 192 | 1.6 | 16.1 | 0.00 | 0.00 | 0.00 | 67 | 1014.8 |
| 20260505054531 | 17 | 267 | 9.7 | 20.9 | 0.00 | 0.00 | 0.00 | 66 | 1014.6 |
| 20260505053037 | 17 | 258 | 6.4 | 14.5 | 0.00 | 0.00 | 0.00 | 66 | 1014.6 |
| 20260505051530 | 16 | 236 | 8.0 | 20.9 | 0.00 | 0.00 | 0.00 | 66 | 1014.6 |
| 20260505041541 | 16 | 151 | 3.2 | 6.4 | 0.00 | 0.00 | 0.00 | 57 | 1014.1 |
| 20260505040044 | 17 | 224 | 3.2 | 9.7 | 0.00 | 0.00 | 0.00 | 53 | 1013.9 |
| 20260505033030 | 18 | 247 | 4.8 | 14.5 | 0.00 | 0.00 | 0.00 | 48 | 1013.4 |
| 20260505031528 | 19 | 238 | 6.4 | 16.1 | 0.00 | 0.00 | 0.00 | 47 | 1013.2 |
| 20260505030032 | 20 | 219 | 6.4 | 16.1 | 0.00 | 0.00 | 0.00 | 46 | 1013.1 |
| 20260505023031 | 21 | 230 | 4.8 | 14.5 | 0.00 | 0.00 | 0.00 | 43 | 1012.9 |
| 20260505021605 | 22 | 236 | 4.8 | 12.9 | 0.00 | 0.00 | 0.00 | 42 | 1012.8 |
| 20260505020034 | 22 | 251 | 6.4 | 19.3 | 0.00 | 0.00 | 0.00 | 41 | 1012.8 |
| 20260505013143 | 23 | 242 | 8.0 | 19.3 | 0.00 | 0.00 | 0.00 | 39 | 1012.6 |
| 20260505011530 | 23 | 253 | 9.7 | 27.4 | 0.00 | 0.00 | 0.00 | 37 | 1012.6 |
| 20260505010033 | 25 | 258 | 9.7 | 24.1 | 0.00 | 0.00 | 0.00 | 35 | 1012.6 |
| 20260505004646 | 26 | 245 | 8.0 | 17.7 | 0.00 | 0.00 | 0.00 | 33 | 1012.6 |
| 20260505001644 | 26 | 257 | 9.7 | 27.4 | 0.00 | 0.00 | 0.00 | 33 | 1012.5 |
| 20260505000108 | 26 | 242 | 9.7 | 22.5 | 0.00 | 0.00 | 0.00 | 32 | 1012.4 |
| 20260504233031 | 27 | 268 | 9.7 | 25.7 | 0.00 | 0.00 | 0.00 | 33 | 1012.3 |
| 20260504231530 | 27 | 256 | 9.7 | 24.1 | 0.00 | 0.00 | 0.00 | 32 | 1012.4 |
| 20260504230033 | 27 | 256 | 11.3 | 25.7 | 0.00 | 0.00 | 0.00 | 33 | 1012.4 |
| 20260504224531 | 27 | 268 | 9.7 | 20.9 | 0.00 | 0.00 | 0.00 | 32 | 1012.5 |
| 20260504223033 | 27 | 267 | 9.7 | 22.5 | 0.00 | 0.00 | 0.00 | 32 | 1012.6 |
| 20260504221532 | 27 | 260 | 12.9 | 27.4 | 0.00 | 0.00 | 0.00 | 31 | 1012.6 |
| 20260504220028 | 27 | 266 | 12.9 | 25.7 | 0.00 | 0.00 | 0.00 | 32 | 1012.6 |
| 20260504214530 | 27 | 267 | 11.3 | 29.0 | 0.00 | 0.00 | 0.00 | 31 | 1012.7 |
| 20260504213112 | 27 | 269 | 11.3 | 27.4 | 0.00 | 0.00 | 0.00 | 31 | 1012.7 |
| 20260504211532 | 27 | 268 | 8.0 | 22.5 | 0.00 | 0.00 | 0.00 | 32 | 1012.8 |
| 20260504210032 | 26 | 266 | 11.3 | 24.1 | 0.00 | 0.00 | 0.00 | 36 | 1012.9 |
| 20260504204531 | 26 | 310 | 8.0 | 16.1 | 0.00 | 0.00 | 0.00 | 38 | 1013.0 |
| 20260504203032 | 26 | 349 | 8.0 | 17.7 | 0.00 | 0.00 | 0.00 | 39 | 1013.1 |
| 20260504201529 | 26 | 13 | 8.0 | 19.3 | 0.00 | 0.00 | 0.00 | 40 | 1013.2 |
| 20260504200034 | 26 | 9 | 9.7 | 19.3 | 0.00 | 0.00 | 0.00 | 40 | 1013.2 |
| 20260504194531 | 25 | 9 | 8.0 | 19.3 | 0.00 | 0.00 | 0.00 | 40 | 1013.2 |
| 20260504193032 | 26 | 359 | 9.7 | 20.9 | 0.00 | 0.00 | 0.00 | 41 | 1013.2 |
| 20260504191608 | 25 | 11 | 8.0 | 17.7 | 0.00 | 0.00 | 0.00 | 42 | 1013.3 |
| 20260504190032 | 25 | 7 | 8.0 | 14.5 | 0.00 | 0.00 | 0.00 | 43 | 1013.4 |
| 20260504184531 | 25 | 355 | 6.4 | 14.5 | 0.00 | 0.00 | 0.00 | 44 | 1013.5 |
| 20260504181602 | 24 | 356 | 4.8 | 12.9 | 0.00 | 0.00 | 0.00 | 44 | 1013.5 |
| 20260504180040 | 23 | 2 | 6.4 | 9.7 | 0.00 | 0.00 | 0.00 | 46 | 1013.5 |
| 20260504174531 | 23 | 356 | 6.4 | 11.3 | 0.00 | 0.00 | 0.00 | 45 | 1013.6 |
| 20260504173029 | 22 | 345 | 6.4 | 12.9 | 0.00 | 0.00 | 0.00 | 46 | 1013.6 |
| 20260504171529 | 22 | 352 | 6.4 | 11.3 | 0.00 | 0.00 | 0.00 | 46 | 1013.6 |